Weather History for La Grange, TX

Change the Weather History Date:

Thursday, June 20, 2013

  Actual Average (KAUS) Record (KAUS)
Temperature  
Mean Temperature 88 °F 82 °F  
Max Temperature 99 °F 93 °F 103 °F (1998)
Min Temperature 77 °F 71 °F 63 °F (2001)
Degree Days  
Heating Degree Days 0 0  
Month to date heating degree days 0  
Since 1 June heating degree days 0  
Since 1 July heating degree days 1903  
Cooling Degree Days 22 17  
Month to date cooling degree days 310  
Year to date cooling degree days 817  
Since 1 June cooling degree days 310  
Growing Degree Days 38 (Base 50)    
Moisture  
Dew Point 74 °F    
Average Humidity 68    
Maximum Humidity 94    
Minimum Humidity 40    
Precipitation  
Precipitation 0.00 in 0.16 in 3.54 in (2007)
Month to date precipitation 2.84  
Year to date precipitation 14.89  
Snow  
Snow 0.00 in - - ()
Month to date snowfall  
Since 1 June snowfall  
Since 1 July snowfall  
Snow Depth -    
Sea Level Pressure  
Sea Level Pressure 30.00 in    
Wind  
Wind Speed 7 mph (South)    
Max Wind Speed 14 mph    
Max Gust Speed 23 mph    
Visibility 8 miles    
Events      
T = Trace of Precipitation, MM = Missing Value Source: NWS Daily Summary

Daily Weather History Graph

Daily Weather History Graph

Search for Another Location

Airport:

Trip Planner

Search our weather history database for the weather conditions in past years. The results will help you decide how hot, cold, wet, or windy it might be!

Date:

Astronomy

Jun. 20, 2013 Rise Set
Actual Time 6:27 AM CDT 8:31 PM CDT
Civil Twilight 5:59 AM CDT 8:59 PM CDT
Nautical Twilight 5:26 AM CDT 9:32 PM CDT
Astronomical Twilight 4:50 AM CDT 10:08 PM CDT
Moon 5:42 PM CDT (6/20) 3:45 AM CDT (6/20)
Length of Visible Light 14h 59m
Length of Day
14h 04m
Waxing Gibbous, 89% of the Moon is Illuminated
Jun 20
Waxing Gibbous
Jun 23
Full
Jun 29
Last Quarter
Jul 8
New
Jul 15
First Quarter

Hourly Weather History & Observations

Time (CDT) Temp. Heat Index Dew Point Humidity Pressure Visibility Wind Dir Wind Speed Gust Speed Precip Events Conditions
12:15 AM 82.2 °F 90.7 °F 77.4 °F 85% 29.97 in 10.0 mi South 10.4 mph - N/A   Clear
12:35 AM 81.5 °F 89.2 °F 77.2 °F 87% 29.96 in 10.0 mi South 8.1 mph - N/A   Clear
12:55 AM 81.5 °F 89.2 °F 77.2 °F 87% 29.98 in 10.0 mi South 3.5 mph - N/A   Clear
1:15 AM 80.8 °F 87.4 °F 77.0 °F 88% 29.97 in 10.0 mi South 6.9 mph - N/A   Mostly Cloudy
1:35 AM 80.2 °F 86.3 °F 77.0 °F 90% 29.98 in 10.0 mi South 4.6 mph - N/A   Scattered Clouds
1:55 AM 80.1 °F 85.7 °F 76.6 °F 89% 29.98 in 10.0 mi Calm Calm - N/A   Clear
2:15 AM 79.2 °F - 76.3 °F 91% 29.97 in 10.0 mi Calm Calm - N/A   Clear
2:35 AM 78.8 °F - 76.1 °F 91% 29.96 in 10.0 mi SSE 4.6 mph - N/A   Scattered Clouds
2:55 AM 78.8 °F - 76.5 °F 92% 29.96 in 10.0 mi South 4.6 mph - N/A   Scattered Clouds
3:15 AM 78.8 °F - 76.5 °F 92% 29.95 in 10.0 mi SSE 4.6 mph - N/A   Clear
3:35 AM 78.8 °F - 76.5 °F 92% 29.96 in 7.0 mi Calm Calm - N/A   Scattered Clouds
3:55 AM 78.8 °F - 76.5 °F 92% 29.96 in 10.0 mi Calm Calm - N/A   Mostly Cloudy
4:15 AM 78.4 °F - 76.1 °F 92% 29.97 in 7.0 mi Calm Calm - N/A   Mostly Cloudy
4:35 AM 77.9 °F - 75.9 °F 94% 29.96 in 7.0 mi SSE 3.5 mph - N/A   Overcast
4:55 AM 77.5 °F - 75.4 °F 93% 29.96 in 7.0 mi South 3.5 mph - N/A   Overcast
5:15 AM 77.2 °F - 75.2 °F 94% 29.96 in 7.0 mi South 4.6 mph - N/A   Scattered Clouds
5:35 AM 77.0 °F - 74.8 °F 93% 29.96 in 7.0 mi South 3.5 mph - N/A   Scattered Clouds
5:55 AM 77.0 °F - 74.8 °F 93% 29.97 in 7.0 mi South 3.5 mph - N/A   Mostly Cloudy
6:15 AM 77.0 °F - 75.2 °F 94% 29.98 in 7.0 mi Calm Calm - N/A   Overcast
6:35 AM 77.5 °F - 75.6 °F 94% 29.99 in 7.0 mi Calm Calm - N/A   Overcast
6:55 AM 77.9 °F - 75.7 °F 93% 30.00 in 5.0 mi Calm Calm - N/A   Overcast
7:15 AM 78.1 °F - 75.7 °F 92% 30.00 in 5.0 mi Calm Calm - N/A   Overcast
7:35 AM 78.8 °F - 76.3 °F 92% 30.01 in 5.0 mi South 4.6 mph - N/A   Overcast
7:55 AM 79.2 °F - 76.3 °F 91% 30.02 in 5.0 mi South 4.6 mph - N/A   Overcast
8:15 AM 80.2 °F 86.1 °F 76.6 °F 89% 30.03 in 7.0 mi South 4.6 mph - N/A   Overcast
8:35 AM 81.5 °F 89.2 °F 77.2 °F 87% 30.04 in 7.0 mi South 8.1 mph - N/A   Overcast
8:55 AM 81.7 °F 89.5 °F 77.0 °F 86% 30.04 in 7.0 mi South 8.1 mph - N/A   Mostly Cloudy
9:15 AM 83.8 °F 93.5 °F 77.0 °F 80% 30.04 in 7.0 mi South 9.2 mph - N/A   Scattered Clouds
9:35 AM 85.1 °F 94.1 °F 75.7 °F 73% 30.04 in 7.0 mi South 9.2 mph - N/A   Scattered Clouds
9:55 AM 86.7 °F 95.0 °F 74.3 °F 66% 30.05 in 7.0 mi SSW 10.4 mph - N/A   Clear
10:15 AM 87.8 °F 96.1 °F 73.8 °F 63% 30.05 in 7.0 mi South 9.2 mph - N/A   Clear
10:35 AM 88.9 °F 97.1 °F 73.4 °F 60% 30.06 in 7.0 mi South 11.5 mph 17.3 mph N/A   Clear
10:55 AM 89.2 °F 96.9 °F 72.5 °F 58% 30.06 in 7.0 mi SSW 9.2 mph 17.3 mph N/A   Scattered Clouds
11:15 AM 91.4 °F 98.9 °F 72.3 °F 53% 30.06 in 10.0 mi SSW 11.5 mph - N/A   Scattered Clouds
11:35 AM 92.3 °F 99.2 °F 71.4 °F 50% 30.06 in 10.0 mi South 12.7 mph - N/A   Clear
11:55 AM 92.7 °F 98.3 °F 70.0 °F 47% 30.05 in 7.0 mi South 12.7 mph 18.4 mph N/A   Clear
12:15 PM 94.1 °F 99.5 °F 69.4 °F 44% 30.05 in 10.0 mi SSW 12.7 mph 23.0 mph N/A   Clear
12:35 PM 94.3 °F 99.8 °F 69.4 °F 44% 30.05 in 10.0 mi SSW 9.2 mph - N/A   Clear
12:55 PM 94.5 °F 100.8 °F 69.8 °F 45% 30.04 in 7.0 mi South 10.4 mph 17.3 mph N/A   Clear
1:15 PM 95.7 °F 102.8 °F 70.5 °F 44% 30.04 in 10.0 mi SSW 10.4 mph 16.1 mph N/A   Scattered Clouds
1:35 PM 94.1 °F 101.2 °F 71.2 °F 47% 30.03 in 7.0 mi South 11.5 mph - N/A   Scattered Clouds
1:55 PM 95.5 °F 103.7 °F 71.8 °F 46% 30.02 in 7.0 mi SE 8.1 mph - N/A   Scattered Clouds
2:15 PM 95.4 °F 102.0 °F 70.0 °F 44% 30.01 in 7.0 mi SSW 8.1 mph - N/A   Clear
2:35 PM 96.3 °F 102.6 °F 70.0 °F 42% 30.01 in 10.0 mi SSE 8.1 mph - N/A   Clear
2:55 PM 96.8 °F 104.4 °F 71.1 °F 43% 30.00 in 7.0 mi South 5.8 mph 18.4 mph N/A   Scattered Clouds
3:15 PM 97.3 °F 104.9 °F 71.1 °F 42% 29.99 in 10.0 mi South 10.4 mph - N/A   Clear
3:35 PM 98.6 °F 106.2 °F 70.3 °F 40% 29.98 in 10.0 mi South 11.5 mph 16.1 mph N/A   Clear
3:55 PM 97.9 °F 106.1 °F 70.9 °F 42% 29.98 in 10.0 mi SSE 11.5 mph 16.1 mph N/A   Clear
4:15 PM 98.4 °F 106.5 °F 71.1 °F 41% 29.98 in 10.0 mi SSE 11.5 mph 20.7 mph N/A   Clear
4:35 PM 98.2 °F 106.9 °F 71.6 °F 42% 29.97 in 7.0 mi SSE 10.4 mph 18.4 mph N/A   Clear
4:55 PM 98.1 °F 106.5 °F 71.1 °F 42% 29.97 in 10.0 mi SSE 12.7 mph 17.3 mph N/A   Clear
5:15 PM 97.2 °F 105.2 °F 71.1 °F 43% 29.97 in 7.0 mi SSE 12.7 mph 17.3 mph N/A   Clear
5:35 PM 97.9 °F 106.1 °F 71.2 °F 42% 29.96 in 7.0 mi South 12.7 mph 17.3 mph N/A   Clear
5:55 PM 97.9 °F 106.1 °F 71.1 °F 42% 29.96 in 10.0 mi SSE 12.7 mph - N/A   Clear
6:15 PM 96.8 °F 104.4 °F 70.9 °F 43% 29.96 in 10.0 mi SSE 10.4 mph - N/A   Clear
6:35 PM 96.4 °F 104.3 °F 71.6 °F 44% 29.96 in 7.0 mi South 13.8 mph 18.4 mph N/A   Clear
6:55 PM 95.4 °F 104.0 °F 72.0 °F 47% 29.96 in 10.0 mi SSE 12.7 mph 17.3 mph N/A   Clear
7:15 PM 94.1 °F 102.5 °F 72.5 °F 49% 29.96 in 10.0 mi SSE 13.8 mph 19.6 mph N/A   Clear
7:35 PM 93.6 °F 101.9 °F 72.5 °F 50% 29.97 in 7.0 mi SSE 9.2 mph - N/A   Clear
7:55 PM 92.3 °F 99.7 °F 71.8 °F 51% 29.97 in 7.0 mi SSE 12.7 mph - N/A   Clear
8:15 PM 91.0 °F 98.2 °F 71.6 °F 53% 29.98 in 7.0 mi South 10.4 mph - N/A   Clear
8:35 PM 89.8 °F 96.5 °F 71.4 °F 55% 29.98 in 7.0 mi SSE 9.2 mph - N/A   Clear
8:55 PM 88.5 °F 95.8 °F 72.3 °F 59% 29.99 in 10.0 mi South 11.5 mph 16.1 mph N/A   Clear
9:15 PM 87.4 °F 95.3 °F 73.4 °F 63% 29.99 in 10.0 mi SSE 8.1 mph - N/A   Clear
9:35 PM 86.9 °F 96.8 °F 75.7 °F 69% 29.99 in 10.0 mi South 9.2 mph - N/A   Clear
9:55 PM 86.0 °F 96.0 °F 76.1 °F 72% 29.99 in 10.0 mi South 9.2 mph - N/A   Clear
10:15 PM 85.3 °F 95.4 °F 76.5 °F 75% 30.01 in 10.0 mi SSE 8.1 mph - N/A   Clear
10:35 PM 84.4 °F 93.9 °F 76.6 °F 77% 30.02 in 10.0 mi SSE 8.1 mph - N/A   Clear
10:55 PM 83.8 °F 93.5 °F 77.2 °F 80% 30.02 in 10.0 mi South 6.9 mph - N/A   Clear
11:15 PM 83.1 °F 92.3 °F 77.2 °F 82% 30.03 in 7.0 mi SSE 6.9 mph - N/A   Clear
11:35 PM 82.6 °F 91.4 °F 77.4 °F 84% 30.04 in 10.0 mi South 5.8 mph - N/A   Clear
11:55 PM 81.9 °F 90.0 °F 77.2 °F 86% 30.04 in 7.0 mi South 5.8 mph - N/A   Clear